| time (UTC) | temp C | wind direction | speed KPH | gust KPH | rain 1hr cm | rain 24hr cm | rain mn cm | humidity % | barometer mb |
| 20260504100615 | 4 | 24 | 3.2 | 4.8 | 0.00 | 0.00 | 0.00 | 86 | 1011.6 |
| 20260504100445 | 3 | 245 | 0.0 | 0.0 | 0.00 | 0.00 | 0.00 | 81 | 1013.6 |
| 20260504100113 | 4 | 84 | 1.6 | 3.2 | 0.00 | 0.00 | 0.00 | 88 | 1011.7 |
| 20260504081820 | 3 | 234 | 0.0 | 0.0 | 0.00 | 0.00 | 0.00 | 82 | 1013.5 |
| 20260504081600 | 3 | 234 | 0.0 | 0.0 | 0.00 | 0.00 | 0.00 | 82 | 1013.6 |
| 20260504081506 | 3 | 68 | 0.0 | 3.2 | 0.00 | 0.00 | 0.00 | 88 | 1011.6 |
| 20260504081109 | 3 | 234 | 0.0 | 0.0 | 0.00 | 0.00 | 0.00 | 81 | 1013.6 |
| 20260504081002 | 3 | 90 | 1.6 | 3.2 | 0.00 | 0.00 | 0.00 | 86 | 1011.4 |
| 20260504080603 | 3 | 234 | 0.0 | 0.0 | 0.00 | 0.00 | 0.00 | 81 | 1013.5 |
| 20260504080458 | 3 | 90 | 0.0 | 3.2 | 0.00 | 0.00 | 0.00 | 87 | 1011.6 |
| 20260504070310 | 3 | 234 | 0.0 | 0.0 | 0.00 | 0.00 | 0.00 | 79 | 1013.5 |
| 20260504050707 | 3 | 233 | 0.0 | 0.0 | 0.00 | 0.00 | 0.00 | 80 | 1013.6 |
| 20260504050311 | 4 | 82 | 1.6 | 3.2 | 0.00 | 0.00 | 0.00 | 83 | 1011.9 |
| 20260504050209 | 3 | 233 | 0.0 | 0.0 | 0.00 | 0.00 | 0.00 | 80 | 1013.6 |
| 20260504045808 | 4 | 98 | 0.0 | 1.6 | 0.00 | 0.00 | 0.00 | 82 | 1011.9 |
| 20260504045708 | 3 | 233 | 0.0 | 0.0 | 0.00 | 0.00 | 0.00 | 81 | 1013.6 |
| 20260504045450 | 3 | 233 | 0.0 | 0.0 | 0.00 | 0.00 | 0.00 | 80 | 1013.7 |
| 20260504045304 | 3 | 71 | 0.0 | 3.2 | 0.00 | 0.00 | 0.00 | 85 | 1012.1 |
| 20260504044800 | 3 | 66 | 0.0 | 3.2 | 0.00 | 0.00 | 0.00 | 86 | 1011.9 |
| 20260504044707 | 3 | 233 | 0.0 | 0.0 | 0.00 | 0.00 | 0.00 | 80 | 1013.7 |
| 20260504044258 | 3 | 90 | 1.6 | 3.2 | 0.00 | 0.00 | 0.00 | 86 | 1012.0 |
| 20260504044207 | 3 | 233 | 0.0 | 0.0 | 0.00 | 0.00 | 0.00 | 80 | 1013.6 |
| 20260504043755 | 3 | 82 | 0.0 | 3.2 | 0.00 | 0.00 | 0.00 | 86 | 1012.1 |
| 20260504043706 | 3 | 233 | 0.0 | 0.0 | 0.00 | 0.00 | 0.00 | 80 | 1013.7 |
| 20260504043251 | 3 | 90 | 3.2 | 3.2 | 0.00 | 0.00 | 0.00 | 85 | 1012.0 |
| 20260504043207 | 3 | 233 | 0.0 | 0.0 | 0.00 | 0.00 | 0.00 | 79 | 1013.6 |
| 20260504042749 | 3 | 90 | 1.6 | 3.2 | 0.00 | 0.00 | 0.00 | 85 | 1011.7 |
| 20260504042652 | 3 | 233 | 0.0 | 0.0 | 0.00 | 0.00 | 0.00 | 79 | 1013.5 |
| 20260504042434 | 4 | 233 | 0.0 | 0.0 | 0.00 | 0.00 | 0.00 | 80 | 1013.5 |
| 20260504042245 | 3 | 84 | 0.0 | 1.6 | 0.00 | 0.00 | 0.00 | 87 | 1012.0 |
| 20260504041741 | 3 | 75 | 1.6 | 3.2 | 0.00 | 0.00 | 0.00 | 87 | 1011.7 |
| 20260504041651 | 4 | 233 | 0.0 | 0.0 | 0.00 | 0.00 | 0.00 | 80 | 1013.4 |
| 20260504041238 | 3 | 95 | 3.2 | 4.8 | 0.00 | 0.00 | 0.00 | 86 | 1011.8 |
| 20260504041152 | 4 | 233 | 0.0 | 0.0 | 0.00 | 0.00 | 0.00 | 80 | 1013.4 |
| 20260504040734 | 3 | 119 | 3.2 | 3.2 | 0.00 | 0.00 | 0.00 | 85 | 1011.7 |
| 20260504040700 | 4 | 233 | 0.0 | 0.0 | 0.00 | 0.00 | 0.00 | 78 | 1013.3 |
| 20260504040232 | 3 | 84 | 1.6 | 3.2 | 0.00 | 0.00 | 0.00 | 85 | 1011.6 |
| 20260504040200 | 4 | 233 | 0.0 | 0.0 | 0.00 | 0.00 | 0.00 | 79 | 1013.3 |
| 20260504035727 | 4 | 66 | 1.6 | 3.2 | 0.00 | 0.00 | 0.00 | 86 | 1011.8 |
| 20260504035645 | 4 | 233 | 0.0 | 0.0 | 0.00 | 0.00 | 0.00 | 78 | 1013.4 |
| 20260504035225 | 4 | 90 | 3.2 | 4.8 | 0.00 | 0.00 | 0.00 | 86 | 1011.7 |
| 20260504035142 | 4 | 233 | 0.0 | 0.0 | 0.00 | 0.00 | 0.00 | 79 | 1013.3 |
| 20260504034723 | 4 | 115 | 3.2 | 4.8 | 0.00 | 0.00 | 0.00 | 84 | 1011.7 |
| 20260504034718 | 4 | 233 | 0.0 | 0.0 | 0.00 | 0.00 | 0.00 | 76 | 1013.2 |
| 20260504034706 | 4 | 233 | 0.0 | 0.0 | 0.00 | 0.00 | 0.00 | 77 | 1013.2 |
| 20260504034219 | 4 | 84 | 1.6 | 3.2 | 0.00 | 0.00 | 0.00 | 83 | 1011.7 |
| 20260504033717 | 4 | 90 | 1.6 | 3.2 | 0.00 | 0.00 | 0.00 | 82 | 1011.6 |
| 20260504033637 | 5 | 233 | 0.0 | 0.0 | 0.00 | 0.00 | 0.00 | 75 | 1013.2 |
| 20260504033214 | 4 | 60 | 1.6 | 3.2 | 0.00 | 0.00 | 0.00 | 82 | 1011.6 |
| 20260504033139 | 5 | 233 | 0.0 | 0.0 | 0.00 | 0.00 | 0.00 | 75 | 1013.2 |
| 20260504032711 | 4 | 54 | 0.0 | 3.2 | 0.00 | 0.00 | 0.00 | 84 | 1011.5 |
| 20260504032639 | 5 | 233 | 0.0 | 0.0 | 0.00 | 0.00 | 0.00 | 75 | 1013.2 |
| 20260504032208 | 4 | 105 | 0.0 | 3.2 | 0.00 | 0.00 | 0.00 | 82 | 1011.4 |
| 20260504032139 | 5 | 233 | 0.0 | 0.0 | 0.00 | 0.00 | 0.00 | 76 | 1013.1 |
| 20260504031705 | 5 | 102 | 1.6 | 3.2 | 0.00 | 0.00 | 0.00 | 82 | 1011.3 |
| 20260504031633 | 5 | 233 | 0.0 | 0.0 | 0.00 | 0.00 | 0.00 | 75 | 1013.0 |
| 20260504031202 | 5 | 90 | 1.6 | 1.6 | 0.00 | 0.00 | 0.00 | 80 | 1011.4 |
| 20260504031115 | 5 | 233 | 0.0 | 0.0 | 0.00 | 0.00 | 0.00 | 73 | 1013.1 |
| 20260504030658 | 5 | 98 | 0.0 | 1.6 | 0.00 | 0.00 | 0.00 | 81 | 1011.5 |
| 20260504030610 | 5 | 233 | 0.0 | 0.0 | 0.00 | 0.00 | 0.00 | 74 | 1013.1 |
| 20260504030345 | 5 | 233 | 0.0 | 0.0 | 0.00 | 0.00 | 0.00 | 74 | 1013.1 |
| 20260504030155 | 5 | 45 | 3.2 | 3.2 | 0.00 | 0.00 | 0.00 | 83 | 1011.4 |
| 20260504025652 | 5 | 75 | 1.6 | 3.2 | 0.00 | 0.00 | 0.00 | 83 | 1011.4 |
| 20260504025554 | 5 | 233 | 0.0 | 0.0 | 0.00 | 0.00 | 0.00 | 74 | 1013.0 |
| 20260504025148 | 5 | 90 | 1.6 | 3.2 | 0.00 | 0.00 | 0.00 | 81 | 1011.3 |
| 20260504025109 | 5 | 233 | 0.0 | 0.0 | 0.00 | 0.00 | 0.00 | 72 | 1013.0 |
| 20260504025057 | 5 | 233 | 0.0 | 0.0 | 0.00 | 0.00 | 0.00 | 75 | 1013.0 |
| 20260504024646 | 5 | 110 | 3.2 | 3.2 | 0.00 | 0.00 | 0.00 | 79 | 1011.4 |
| 20260504024142 | 5 | 96 | 3.2 | 3.2 | 0.00 | 0.00 | 0.00 | 80 | 1011.2 |
| 20260504024020 | 6 | 233 | 0.0 | 0.0 | 0.00 | 0.00 | 0.00 | 73 | 1013.0 |
| 20260504023639 | 5 | 90 | 3.2 | 3.2 | 0.00 | 0.00 | 0.00 | 80 | 1011.2 |
| 20260504023505 | 6 | 233 | 0.0 | 0.0 | 0.00 | 0.00 | 0.00 | 73 | 1013.0 |
| 20260504023135 | 5 | 70 | 3.2 | 3.2 | 0.00 | 0.00 | 0.00 | 80 | 1011.4 |
| 20260504023004 | 6 | 233 | 0.0 | 0.0 | 0.00 | 0.00 | 0.00 | 71 | 1013.0 |
| 20260504022748 | 6 | 233 | 0.0 | 0.0 | 0.00 | 0.00 | 0.00 | 73 | 1013.1 |
| 20260504022632 | 5 | 90 | 0.0 | 4.8 | 0.00 | 0.00 | 0.00 | 80 | 1011.4 |
| 20260504022127 | 6 | 90 | 1.6 | 3.2 | 0.00 | 0.00 | 0.00 | 81 | 1011.4 |
| 20260504022000 | 6 | 233 | 0.0 | 0.0 | 0.00 | 0.00 | 0.00 | 73 | 1013.1 |
| 20260504021626 | 6 | 98 | 1.6 | 3.2 | 0.00 | 0.00 | 0.00 | 81 | 1011.4 |
| 20260504021459 | 6 | 233 | 0.0 | 0.0 | 0.00 | 0.00 | 0.00 | 73 | 1013.0 |
| 20260504021122 | 6 | 84 | 3.2 | 3.2 | 0.00 | 0.00 | 0.00 | 80 | 1011.4 |
| 20260504021001 | 6 | 233 | 0.0 | 0.0 | 0.00 | 0.00 | 0.00 | 71 | 1013.1 |
| 20260504020619 | 6 | 90 | 3.2 | 3.2 | 0.00 | 0.00 | 0.00 | 77 | 1011.4 |
| 20260504020459 | 7 | 233 | 0.0 | 0.0 | 0.00 | 0.00 | 0.00 | 70 | 1013.1 |
| 20260504020115 | 6 | 85 | 3.2 | 3.2 | 0.00 | 0.00 | 0.00 | 76 | 1011.3 |
| 20260504015957 | 7 | 233 | 0.0 | 0.0 | 0.00 | 0.00 | 0.00 | 69 | 1013.1 |
| 20260504015612 | 6 | 85 | 3.2 | 3.2 | 0.00 | 0.00 | 0.00 | 72 | 1011.4 |
| 20260504015457 | 7 | 233 | 0.0 | 0.0 | 0.00 | 0.00 | 0.00 | 64 | 1013.1 |
| 20260504015108 | 6 | 90 | 1.6 | 3.2 | 0.00 | 0.00 | 0.00 | 70 | 1011.5 |
| 20260504014954 | 7 | 233 | 0.0 | 0.0 | 0.00 | 0.00 | 0.00 | 64 | 1013.0 |
| 20260504014604 | 6 | 83 | 1.6 | 3.2 | 0.00 | 0.00 | 0.00 | 74 | 1011.4 |
| 20260504014453 | 7 | 233 | 0.0 | 0.0 | 0.00 | 0.00 | 0.00 | 66 | 1013.0 |
| 20260504014236 | 7 | 233 | 0.0 | 0.0 | 0.00 | 0.00 | 0.00 | 63 | 1012.9 |
| 20260504014101 | 7 | 68 | 3.2 | 3.2 | 0.00 | 0.00 | 0.00 | 72 | 1011.2 |
| 20260504013559 | 7 | 106 | 3.2 | 3.2 | 0.00 | 0.00 | 0.00 | 70 | 1011.1 |
| 20260504013449 | 8 | 233 | 0.0 | 0.0 | 0.00 | 0.00 | 0.00 | 65 | 1012.8 |
| 20260504013055 | 7 | 99 | 3.2 | 4.8 | 0.00 | 0.00 | 0.00 | 70 | 1011.0 |
| 20260504012948 | 8 | 233 | 0.0 | 0.0 | 0.00 | 0.00 | 0.00 | 65 | 1012.7 |
| 20260504012553 | 7 | 97 | 1.6 | 3.2 | 0.00 | 0.00 | 0.00 | 67 | 1011.0 |
| 20260504012445 | 8 | 233 | 0.0 | 0.0 | 0.00 | 0.00 | 0.00 | 60 | 1012.7 |
| 20260504012051 | 7 | 63 | 3.2 | 4.8 | 0.00 | 0.00 | 0.00 | 69 | 1011.0 |
| 20260504011942 | 8 | 233 | 0.0 | 0.0 | 0.00 | 0.00 | 0.00 | 61 | 1012.7 |
| 20260504011547 | 7 | 74 | 3.2 | 3.2 | 0.00 | 0.00 | 0.00 | 67 | 1011.2 |
| 20260504011441 | 8 | 233 | 0.0 | 0.0 | 0.00 | 0.00 | 0.00 | 60 | 1012.7 |
| 20260504011043 | 8 | 80 | 3.2 | 3.2 | 0.00 | 0.00 | 0.00 | 65 | 1010.8 |
| 20260504010943 | 8 | 233 | 0.0 | 0.0 | 0.00 | 0.00 | 0.00 | 57 | 1012.6 |
| 20260504010539 | 8 | 106 | 3.2 | 3.2 | 0.00 | 0.00 | 0.00 | 65 | 1010.8 |
| 20260504010431 | 9 | 233 | 0.0 | 0.0 | 0.00 | 0.00 | 0.00 | 59 | 1012.6 |
| 20260504010036 | 8 | 90 | 1.6 | 3.2 | 0.00 | 0.00 | 0.00 | 62 | 1010.9 |
| 20260504005930 | 9 | 233 | 0.0 | 0.0 | 0.00 | 0.00 | 0.00 | 56 | 1012.5 |
| 20260504005532 | 8 | 75 | 3.2 | 3.2 | 0.00 | 0.00 | 0.00 | 65 | 1010.7 |
| 20260504005429 | 10 | 233 | 0.0 | 0.0 | 0.00 | 0.00 | 0.00 | 58 | 1012.5 |
| 20260504005030 | 9 | 90 | 3.2 | 3.2 | 0.00 | 0.00 | 0.00 | 64 | 1011.0 |
| 20260504004929 | 10 | 233 | 0.0 | 0.0 | 0.00 | 0.00 | 0.00 | 57 | 1012.5 |
| 20260504004528 | 10 | 69 | 1.6 | 3.2 | 0.00 | 0.00 | 0.00 | 61 | 1010.9 |
| 20260504004423 | 10 | 233 | 0.0 | 0.0 | 0.00 | 0.00 | 0.00 | 56 | 1012.5 |
| 20260504004024 | 10 | 117 | 0.0 | 3.2 | 0.00 | 0.00 | 0.00 | 53 | 1010.7 |
| 20260504003922 | 10 | 233 | 0.0 | 0.0 | 0.00 | 0.00 | 0.00 | 53 | 1012.4 |
| 20260504003520 | 10 | 117 | 0.0 | 3.2 | 0.00 | 0.00 | 0.00 | 57 | 1010.8 |
| 20260504003422 | 11 | 233 | 0.0 | 0.0 | 0.00 | 0.00 | 0.00 | 52 | 1012.3 |
| 20260504003017 | 11 | 114 | 0.0 | 3.2 | 0.00 | 0.00 | 0.00 | 53 | 1010.7 |
| 20260504002922 | 11 | 233 | 0.0 | 0.0 | 0.00 | 0.00 | 0.00 | 49 | 1012.2 |
| 20260504002514 | 11 | 74 | 0.0 | 3.2 | 0.00 | 0.00 | 0.00 | 50 | 1010.5 |
| 20260504002420 | 11 | 233 | 0.0 | 0.0 | 0.00 | 0.00 | 0.00 | 46 | 1012.1 |
| 20260504002012 | 11 | 99 | 0.0 | 1.6 | 0.00 | 0.00 | 0.00 | 46 | 1010.5 |
| 20260504001921 | 11 | 233 | 0.0 | 0.0 | 0.00 | 0.00 | 0.00 | 46 | 1012.1 |
| 20260504001509 | 11 | 154 | 0.0 | 1.6 | 0.00 | 0.00 | 0.00 | 47 | 1010.3 |
| 20260504001420 | 12 | 233 | 0.0 | 0.0 | 0.00 | 0.00 | 0.00 | 47 | 1012.0 |
| 20260504001005 | 12 | 188 | 0.0 | 3.2 | 0.00 | 0.00 | 0.00 | 47 | 1010.3 |
| 20260504000918 | 12 | 233 | 0.0 | 0.0 | 0.00 | 0.00 | 0.00 | 45 | 1012.0 |
| 20260504000503 | 12 | 106 | 0.0 | 3.2 | 0.00 | 0.00 | 0.00 | 47 | 1010.5 |
| 20260504000456 | 12 | 233 | 0.0 | 0.0 | 0.00 | 0.00 | 0.00 | 41 | 1011.9 |
| 20260504000441 | 12 | 233 | 0.0 | 0.0 | 0.00 | 0.00 | 0.00 | 43 | 1011.9 |
| 20260504000000 | 12 | 114 | 0.0 | 1.6 | 0.00 | 0.00 | 0.00 | 44 | 1010.3 |
| 20260503235458 | 12 | 180 | 0.0 | 1.6 | 0.00 | 0.00 | 0.00 | 43 | 1010.2 |
| 20260503235418 | 12 | 233 | 0.0 | 0.0 | 0.00 | 0.00 | 0.00 | 40 | 1011.8 |
| 20260503234955 | 12 | 172 | 0.0 | 1.6 | 0.00 | 0.00 | 0.00 | 43 | 1010.2 |
| 20260503234917 | 12 | 235 | 0.0 | 0.0 | 0.00 | 0.00 | 0.00 | 40 | 1011.8 |
| 20260503234452 | 13 | 180 | 1.6 | 1.6 | 0.00 | 0.00 | 0.00 | 44 | 1010.1 |
| 20260503234410 | 13 | 237 | 0.0 | 0.0 | 0.00 | 0.00 | 0.00 | 41 | 1011.8 |
| 20260503233950 | 13 | 215 | 0.0 | 1.6 | 0.00 | 0.00 | 0.00 | 42 | 1010.3 |
| 20260503233940 | 13 | 229 | 0.0 | 0.0 | 0.00 | 0.00 | 0.00 | 40 | 1011.6 |
| 20260503233930 | 13 | 231 | 0.0 | 0.0 | 0.00 | 0.00 | 0.00 | 40 | 1011.7 |
| 20260503233446 | 13 | 180 | 0.0 | 0.0 | 0.00 | 0.00 | 0.00 | 43 | 1010.0 |
| 20260503232943 | 13 | 209 | 0.0 | 3.2 | 0.00 | 0.00 | 0.00 | 42 | 1009.9 |
| 20260503232910 | 13 | 211 | 0.0 | 0.0 | 0.00 | 0.00 | 0.00 | 39 | 1011.6 |
| 20260503232440 | 13 | 262 | 1.6 | 1.6 | 0.00 | 0.00 | 0.00 | 41 | 1010.2 |
| 20260503232410 | 13 | 226 | 0.0 | 0.0 | 0.00 | 0.00 | 0.00 | 39 | 1011.7 |
| 20260503231938 | 13 | 200 | 1.6 | 3.2 | 0.00 | 0.00 | 0.00 | 41 | 1009.9 |
| 20260503231909 | 13 | 209 | 0.0 | 0.0 | 0.00 | 0.00 | 0.00 | 38 | 1011.6 |
| 20260503231651 | 13 | 225 | 0.0 | 0.0 | 0.00 | 0.00 | 0.00 | 38 | 1011.7 |
| 20260503231435 | 13 | 82 | 0.0 | 3.2 | 0.00 | 0.00 | 0.00 | 40 | 1010.2 |
| 20260503230931 | 13 | 203 | 0.0 | 1.6 | 0.00 | 0.00 | 0.00 | 41 | 1010.2 |
| 20260503230909 | 13 | 239 | 0.0 | 0.0 | 0.00 | 0.00 | 0.00 | 39 | 1011.6 |
| 20260503230428 | 13 | 270 | 0.0 | 4.8 | 0.00 | 0.00 | 0.00 | 39 | 1010.1 |
| 20260503230409 | 13 | 238 | 0.0 | 0.0 | 0.00 | 0.00 | 0.00 | 37 | 1011.6 |
| 20260503225926 | 13 | 331 | 0.0 | 3.2 | 0.00 | 0.00 | 0.00 | 42 | 1010.2 |
| 20260503225907 | 13 | 242 | 0.0 | 0.0 | 0.00 | 0.00 | 0.00 | 39 | 1011.6 |
| 20260503225422 | 13 | 99 | 0.0 | 4.8 | 0.00 | 0.00 | 0.00 | 40 | 1009.9 |
| 20260503225405 | 13 | 217 | 0.0 | 0.0 | 0.00 | 0.00 | 0.00 | 36 | 1011.6 |
| 20260503224918 | 14 | 245 | 3.2 | 4.8 | 0.00 | 0.00 | 0.00 | 38 | 1010.0 |
| 20260503224903 | 13 | 247 | 0.0 | 0.0 | 0.00 | 0.00 | 0.00 | 36 | 1011.5 |
| 20260503224415 | 14 | 281 | 4.8 | 4.8 | 0.00 | 0.00 | 0.00 | 42 | 1009.9 |
| 20260503224405 | 14 | 274 | 0.0 | 0.0 | 0.00 | 0.00 | 0.00 | 39 | 1011.6 |
| 20260503223913 | 14 | 330 | 3.2 | 8.0 | 0.00 | 0.00 | 0.00 | 40 | 1009.9 |
| 20260503223903 | 14 | 277 | 0.0 | 0.0 | 0.00 | 0.00 | 0.00 | 38 | 1011.5 |
| 20260503223410 | 14 | 334 | 0.0 | 3.2 | 0.00 | 0.00 | 0.00 | 40 | 1009.7 |
| 20260503223352 | 14 | 253 | 0.0 | 0.0 | 0.00 | 0.00 | 0.00 | 38 | 1011.5 |
| 20260503222911 | 14 | 83 | 4.8 | 4.8 | 0.00 | 0.00 | 0.00 | 42 | 1009.9 |
| 20260503222849 | 14 | 297 | 0.0 | 0.0 | 0.00 | 0.00 | 0.00 | 39 | 1011.3 |
| 20260503222409 | 14 | 180 | 0.0 | 3.2 | 0.00 | 0.00 | 0.00 | 40 | 1009.7 |
| 20260503222347 | 14 | 270 | 0.0 | 0.0 | 0.00 | 0.00 | 0.00 | 38 | 1011.3 |
| 20260503222135 | 14 | 197 | 0.0 | 0.0 | 0.00 | 0.00 | 0.00 | 37 | 1011.5 |
| 20260503221907 | 14 | 199 | 3.2 | 4.8 | 0.00 | 0.00 | 0.00 | 39 | 1009.9 |
| 20260503221628 | 14 | 227 | 0.0 | 0.0 | 0.00 | 0.00 | 0.00 | 36 | 1011.5 |
| 20260503221406 | 14 | 206 | 3.2 | 9.7 | 0.00 | 0.00 | 0.00 | 38 | 1009.8 |
| 20260503220901 | 14 | 291 | 0.0 | 4.8 | 0.00 | 0.00 | 0.00 | 39 | 1010.0 |
| 20260503220845 | 14 | 271 | 0.0 | 0.0 | 0.00 | 0.00 | 0.00 | 37 | 1011.5 |
| 20260503220622 | 14 | 230 | 0.0 | 0.0 | 0.00 | 0.00 | 0.00 | 35 | 1011.5 |
| 20260503220358 | 14 | 352 | 0.0 | 4.8 | 0.00 | 0.00 | 0.00 | 38 | 1009.9 |
| 20260503220124 | 14 | 234 | 0.0 | 0.0 | 0.00 | 0.00 | 0.00 | 35 | 1011.6 |
| 20260503215855 | 15 | 236 | 3.2 | 4.8 | 0.00 | 0.00 | 0.00 | 37 | 1009.8 |
| 20260503215352 | 14 | 312 | 3.2 | 11.3 | 0.00 | 0.00 | 0.00 | 38 | 1010.0 |
| 20260503215338 | 14 | 234 | 0.0 | 0.0 | 0.00 | 0.00 | 0.00 | 36 | 1011.6 |
| 20260503214849 | 15 | 276 | 4.8 | 8.0 | 0.00 | 0.00 | 0.00 | 36 | 1010.0 |
| 20260503214824 | 14 | 236 | 0.0 | 0.0 | 0.00 | 0.00 | 0.00 | 36 | 1011.6 |
| 20260503214347 | 15 | 47 | 4.8 | 8.0 | 0.00 | 0.00 | 0.00 | 38 | 1010.1 |
| 20260503214320 | 14 | 299 | 0.0 | 0.0 | 0.00 | 0.00 | 0.00 | 38 | 1011.5 |
| 20260503213851 | 13 | 202 | 0.0 | 0.0 | 0.00 | 0.00 | 0.00 | 35 | 1011.5 |
| 20260503213844 | 14 | 12 | 3.2 | 4.8 | 0.00 | 0.00 | 0.00 | 37 | 1009.9 |
| 20260503213838 | 13 | 281 | 0.0 | 0.0 | 0.00 | 0.00 | 0.00 | 36 | 1011.5 |
| 20260503213342 | 13 | 195 | 3.2 | 6.4 | 0.00 | 0.00 | 0.00 | 38 | 1009.9 |
| 20260503212839 | 13 | 294 | 6.4 | 6.4 | 0.00 | 0.00 | 0.00 | 38 | 1010.4 |
| 20260503212819 | 14 | 240 | 0.0 | 0.0 | 0.00 | 0.00 | 0.00 | 35 | 1011.6 |
| 20260503212603 | 14 | 212 | 0.0 | 0.0 | 0.00 | 0.00 | 0.00 | 33 | 1011.5 |
| 20260503212336 | 13 | 230 | 4.8 | 11.3 | 0.00 | 0.00 | 0.00 | 36 | 1009.9 |
| 20260503211833 | 14 | 274 | 3.2 | 9.7 | 0.00 | 0.00 | 0.00 | 38 | 1010.1 |
| 20260503211818 | 14 | 209 | 0.0 | 0.0 | 0.00 | 0.00 | 0.00 | 34 | 1011.5 |
| 20260503211330 | 14 | 236 | 3.2 | 6.4 | 0.00 | 0.00 | 0.00 | 37 | 1009.8 |
| 20260503211317 | 15 | 212 | 0.0 | 0.0 | 0.00 | 0.00 | 0.00 | 34 | 1011.5 |
| 20260503210825 | 15 | 198 | 4.8 | 4.8 | 0.00 | 0.00 | 0.00 | 38 | 1009.9 |
| 20260503210802 | 15 | 227 | 0.0 | 0.0 | 0.00 | 0.00 | 0.00 | 36 | 1011.5 |
| 20260503210323 | 15 | 337 | 4.8 | 8.0 | 0.00 | 0.00 | 0.00 | 36 | 1010.0 |
| 20260503210245 | 15 | 221 | 0.0 | 0.0 | 0.00 | 0.00 | 0.00 | 36 | 1011.5 |
| 20260503205818 | 15 | 319 | 3.2 | 6.4 | 0.00 | 0.00 | 0.00 | 36 | 1009.9 |
| 20260503205746 | 15 | 266 | 0.0 | 0.0 | 0.00 | 0.00 | 0.00 | 35 | 1011.5 |
| 20260503205314 | 15 | 325 | 6.4 | 8.0 | 0.00 | 0.00 | 0.00 | 36 | 1010.0 |
| 20260503205246 | 15 | 245 | 0.0 | 0.0 | 0.00 | 0.00 | 0.00 | 36 | 1011.5 |
| 20260503204811 | 14 | 267 | 4.8 | 8.0 | 0.00 | 0.00 | 0.00 | 36 | 1010.2 |
| 20260503204748 | 15 | 275 | 0.0 | 0.0 | 0.00 | 0.00 | 0.00 | 33 | 1011.6 |
| 20260503204309 | 14 | 0 | 8.0 | 8.0 | 0.00 | 0.00 | 0.00 | 36 | 1010.1 |
| 20260503204244 | 15 | 288 | 0.0 | 0.0 | 0.00 | 0.00 | 0.00 | 33 | 1011.5 |
| 20260503203806 | 15 | 329 | 4.8 | 4.8 | 0.00 | 0.00 | 0.00 | 36 | 1010.0 |
| 20260503203743 | 15 | 279 | 0.0 | 0.0 | 0.00 | 0.00 | 0.00 | 34 | 1011.6 |
| 20260503203303 | 15 | 307 | 4.8 | 17.7 | 0.00 | 0.00 | 0.00 | 37 | 1010.0 |
| 20260503203244 | 15 | 285 | 0.0 | 0.0 | 0.00 | 0.00 | 0.00 | 33 | 1011.5 |
| 20260503202800 | 15 | 349 | 1.6 | 14.5 | 0.00 | 0.00 | 0.00 | 37 | 1010.0 |
| 20260503202742 | 15 | 261 | 0.0 | 0.0 | 0.00 | 0.00 | 0.00 | 36 | 1011.6 |
| 20260503202258 | 15 | 67 | 8.0 | 16.1 | 0.00 | 0.00 | 0.00 | 36 | 1009.9 |
| 20260503202242 | 15 | 257 | 0.0 | 0.0 | 0.00 | 0.00 | 0.00 | 35 | 1011.6 |
| 20260503201755 | 14 | 0 | 0.0 | 4.8 | 0.00 | 0.00 | 0.00 | 39 | 1010.0 |
| 20260503201753 | 15 | 275 | 0.0 | 0.0 | 0.00 | 0.00 | 0.00 | 36 | 1011.6 |
| 20260503201253 | 15 | 350 | 9.7 | 9.7 | 0.00 | 0.00 | 0.00 | 36 | 1010.1 |
| 20260503201237 | 15 | 289 | 0.0 | 0.0 | 0.00 | 0.00 | 0.00 | 35 | 1011.7 |
| 20260503200750 | 14 | 353 | 0.0 | 6.4 | 0.00 | 0.00 | 0.00 | 39 | 1010.3 |
| 20260503200738 | 14 | 302 | 0.0 | 0.0 | 0.00 | 0.00 | 0.00 | 36 | 1011.8 |
| 20260503200246 | 14 | 307 | 8.0 | 11.3 | 0.00 | 0.00 | 0.00 | 38 | 1010.3 |
| 20260503200238 | 14 | 257 | 0.0 | 0.0 | 0.00 | 0.00 | 0.00 | 36 | 1011.8 |
| 20260503195743 | 13 | 270 | 3.2 | 9.7 | 0.00 | 0.00 | 0.00 | 38 | 1010.2 |
| 20260503195738 | 13 | 285 | 0.0 | 0.0 | 0.00 | 0.00 | 0.00 | 37 | 1011.9 |
| 20260503195241 | 14 | 205 | 0.0 | 0.0 | 0.00 | 0.00 | 0.00 | 35 | 1012.0 |
| 20260503195239 | 13 | 233 | 3.2 | 6.4 | 0.00 | 0.00 | 0.00 | 36 | 1010.3 |
| 20260503194740 | 14 | 278 | 0.0 | 0.0 | 0.00 | 0.00 | 0.00 | 38 | 1012.0 |
| 20260503194738 | 14 | 35 | 6.4 | 14.5 | 0.00 | 0.00 | 0.00 | 37 | 1010.4 |
| 20260503194239 | 13 | 264 | 0.0 | 0.0 | 0.00 | 0.00 | 0.00 | 37 | 1012.0 |
| 20260503194233 | 13 | 349 | 8.0 | 11.3 | 0.00 | 0.00 | 0.00 | 38 | 1010.4 |
| 20260503193738 | 13 | 218 | 0.0 | 0.0 | 0.00 | 0.00 | 0.00 | 36 | 1012.1 |
| 20260503193729 | 13 | 259 | 4.8 | 8.0 | 0.00 | 0.00 | 0.00 | 37 | 1010.4 |
| 20260503193236 | 13 | 295 | 0.0 | 0.0 | 0.00 | 0.00 | 0.00 | 37 | 1012.2 |
| 20260503193225 | 13 | 356 | 6.4 | 9.7 | 0.00 | 0.00 | 0.00 | 42 | 1010.5 |
| 20260503192735 | 13 | 229 | 0.0 | 0.0 | 0.00 | 0.00 | 0.00 | 36 | 1012.2 |
| 20260503192721 | 13 | 202 | 3.2 | 14.5 | 0.00 | 0.00 | 0.00 | 39 | 1010.7 |
| 20260503192235 | 13 | 267 | 0.0 | 0.0 | 0.00 | 0.00 | 0.00 | 36 | 1012.2 |
| 20260503192216 | 13 | 265 | 9.7 | 17.7 | 0.00 | 0.00 | 0.00 | 38 | 1010.5 |
| 20260503191736 | 13 | 239 | 0.0 | 0.0 | 0.00 | 0.00 | 0.00 | 40 | 1012.3 |
| 20260503191714 | 14 | 2 | 6.4 | 11.3 | 0.00 | 0.00 | 0.00 | 38 | 1010.7 |
| 20260503191236 | 13 | 281 | 0.0 | 0.0 | 0.00 | 0.00 | 0.00 | 38 | 1012.3 |
| 20260503191211 | 13 | 15 | 0.0 | 6.4 | 0.00 | 0.00 | 0.00 | 40 | 1010.8 |
| 20260503190722 | 13 | 277 | 0.0 | 0.0 | 0.00 | 0.00 | 0.00 | 39 | 1012.4 |
| 20260503190707 | 13 | 334 | 9.7 | 11.3 | 0.00 | 0.00 | 0.00 | 39 | 1010.8 |
| 20260503190458 | 13 | 167 | 0.0 | 0.0 | 0.00 | 0.00 | 0.00 | 36 | 1012.4 |
| 20260503190204 | 12 | 221 | 6.4 | 14.5 | 0.00 | 0.00 | 0.00 | 39 | 1011.0 |
| 20260503185702 | 12 | 251 | 3.2 | 8.0 | 0.00 | 0.00 | 0.00 | 39 | 1010.8 |
| 20260503185654 | 13 | 229 | 0.0 | 0.0 | 0.00 | 0.00 | 0.00 | 36 | 1012.5 |
| 20260503185156 | 12 | 270 | 6.4 | 12.9 | 0.00 | 0.00 | 0.00 | 46 | 1010.9 |
| 20260503185148 | 13 | 246 | 0.0 | 0.0 | 0.00 | 0.00 | 0.00 | 39 | 1012.6 |
| 20260503184651 | 12 | 328 | 4.8 | 9.7 | 0.00 | 0.00 | 0.00 | 43 | 1011.1 |
| 20260503184647 | 13 | 258 | 0.0 | 11.3 | 0.00 | 0.00 | 0.00 | 37 | 1012.7 |
| 20260503184148 | 13 | 213 | 6.4 | 8.0 | 0.00 | 0.00 | 0.00 | 41 | 1010.9 |
| 20260503184146 | 14 | 190 | 0.0 | 11.3 | 0.00 | 0.00 | 0.00 | 37 | 1012.5 |
| 20260503183645 | 14 | 272 | 3.2 | 12.9 | 0.00 | 0.00 | 0.00 | 35 | 1012.7 |
| 20260503183147 | 14 | 295 | 8.0 | 16.1 | 0.00 | 0.00 | 0.00 | 36 | 1012.7 |
| 20260503183142 | 13 | 348 | 4.8 | 9.7 | 0.00 | 0.00 | 0.00 | 40 | 1011.3 |
| 20260503182931 | 13 | 292 | 6.4 | 16.1 | 0.00 | 0.00 | 0.00 | 35 | 1012.7 |
| 20260503182640 | 12 | 326 | 6.4 | 20.9 | 0.00 | 0.00 | 0.00 | 39 | 1011.1 |
| 20260503182156 | 14 | 290 | 6.4 | 16.1 | 0.00 | 0.00 | 0.00 | 34 | 1012.6 |
| 20260503182139 | 13 | 305 | 3.2 | 8.0 | 0.00 | 0.00 | 0.00 | 38 | 1011.1 |
| 20260503181644 | 14 | 285 | 6.4 | 22.5 | 0.00 | 0.00 | 0.00 | 35 | 1012.8 |
| 20260503181635 | 12 | 270 | 4.8 | 14.5 | 0.00 | 0.00 | 0.00 | 40 | 1011.2 |
| 20260503181147 | 13 | 290 | 6.4 | 22.5 | 0.00 | 0.00 | 0.00 | 39 | 1012.8 |
| 20260503181132 | 13 | 297 | 9.7 | 12.9 | 0.00 | 0.00 | 0.00 | 43 | 1011.2 |
| 20260503181000 | 13 | 285 | 8.0 | 16.1 | 0.00 | 0.00 | 0.00 | 38 | 1012.8 |
| 20260503180657 | 13 | 269 | 6.4 | 16.1 | 0.00 | 0.00 | 0.00 | 39 | 1012.7 |
| 20260503180628 | 13 | 270 | 1.6 | 8.0 | 0.00 | 0.00 | 0.00 | 40 | 1011.2 |
| 20260503180126 | 13 | 343 | 14.5 | 17.7 | 0.00 | 0.00 | 0.00 | 37 | 1011.2 |
| 20260503175912 | 13 | 263 | 8.0 | 17.7 | 0.00 | 0.00 | 0.00 | 34 | 1012.9 |
| 20260503175623 | 12 | 279 | 4.8 | 11.3 | 0.00 | 0.00 | 0.00 | 38 | 1011.3 |
| 20260503175410 | 13 | 286 | 8.0 | 17.7 | 0.00 | 0.00 | 0.00 | 35 | 1012.8 |
| 20260503175120 | 12 | 294 | 1.6 | 8.0 | 0.00 | 0.00 | 0.00 | 40 | 1011.1 |
| 20260503174911 | 13 | 223 | 8.0 | 17.7 | 0.00 | 0.00 | 0.00 | 36 | 1012.8 |
| 20260503174617 | 12 | 250 | 8.0 | 12.9 | 0.00 | 0.00 | 0.00 | 39 | 1011.1 |
| 20260503174117 | 13 | 170 | 8.0 | 17.7 | 0.00 | 0.00 | 0.00 | 37 | 1012.8 |
| 20260503174114 | 12 | 200 | 8.0 | 8.0 | 0.00 | 0.00 | 0.00 | 41 | 1011.3 |
| 20260503173617 | 14 | 355 | 8.0 | 20.9 | 0.00 | 0.00 | 0.00 | 35 | 1012.8 |
| 20260503173609 | 12 | 331 | 4.8 | 9.7 | 0.00 | 0.00 | 0.00 | 37 | 1011.2 |
| 20260503173404 | 14 | 290 | 9.7 | 20.9 | 0.00 | 0.00 | 0.00 | 39 | 1012.8 |
| 20260503173106 | 12 | 3 | 12.9 | 14.5 | 0.00 | 0.00 | 0.00 | 39 | 1011.1 |
| 20260503172631 | 13 | 288 | 8.0 | 20.9 | 0.00 | 0.00 | 0.00 | 35 | 1012.9 |
| 20260503172603 | 12 | 357 | 9.7 | 14.5 | 0.00 | 0.00 | 0.00 | 40 | 1011.4 |
| 20260503172118 | 13 | 201 | 6.4 | 20.9 | 0.00 | 0.00 | 0.00 | 38 | 1012.9 |
| 20260503172100 | 12 | 214 | 4.8 | 9.7 | 0.00 | 0.00 | 0.00 | 43 | 1011.3 |
| 20260503171618 | 13 | 242 | 6.4 | 14.5 | 0.00 | 0.00 | 0.00 | 37 | 1012.9 |
| 20260503171556 | 12 | 299 | 3.2 | 11.3 | 0.00 | 0.00 | 0.00 | 41 | 1011.3 |
| 20260503171113 | 13 | 277 | 6.4 | 16.1 | 0.00 | 0.00 | 0.00 | 36 | 1013.1 |
| 20260503171054 | 12 | 343 | 4.8 | 16.1 | 0.00 | 0.00 | 0.00 | 42 | 1011.4 |
| 20260503170949 | 13 | 275 | 8.0 | 16.1 | 0.00 | 0.00 | 0.00 | 36 | 1013.1 |
| 20260503170648 | 13 | 277 | 8.0 | 16.1 | 0.00 | 0.00 | 0.00 | 40 | 1013.1 |
| 20260503170550 | 12 | 359 | 8.0 | 20.9 | 0.00 | 0.00 | 0.00 | 41 | 1011.6 |
| 20260503160133 | 12 | 288 | 6.4 | 16.1 | 0.00 | 0.00 | 0.00 | 40 | 1013.5 |
| 20260503150943 | 9 | 3 | 3.2 | 8.0 | 0.00 | 0.00 | 0.00 | 53 | 1012.0 |
| 20260503150552 | 11 | 284 | 6.4 | 14.5 | 0.00 | 0.00 | 0.00 | 43 | 1013.6 |
| 20260503150439 | 10 | 352 | 4.8 | 8.0 | 0.00 | 0.00 | 0.00 | 50 | 1012.0 |
| 20260503131332 | 6 | 32 | 1.6 | 9.7 | 0.00 | 0.00 | 0.00 | 64 | 1011.9 |
| 20260503130942 | 7 | 299 | 6.4 | 12.9 | 0.00 | 0.00 | 0.00 | 60 | 1013.7 |
| 20260503130829 | 6 | 10 | 3.2 | 8.0 | 0.00 | 0.00 | 0.00 | 65 | 1012.0 |
| 20260503130439 | 7 | 285 | 6.4 | 14.5 | 0.00 | 0.00 | 0.00 | 59 | 1013.6 |
| 20260503130327 | 6 | 321 | 3.2 | 11.3 | 0.00 | 0.00 | 0.00 | 64 | 1011.9 |
| 20260503110743 | 5 | 287 | 3.2 | 9.7 | 0.00 | 0.00 | 0.00 | 70 | 1012.6 |
| 20260503110720 | 5 | 15 | 0.0 | 8.0 | 0.00 | 0.00 | 0.00 | 73 | 1010.9 |
| 20260503110436 | 5 | 293 | 3.2 | 6.4 | 0.00 | 0.00 | 0.00 | 70 | 1012.7 |
| 20260503110218 | 5 | 2 | 4.8 | 4.8 | 0.00 | 0.00 | 0.00 | 74 | 1010.8 |